GW3487 Weather Reports


Display with metric or nautical units.
time (UTC)temp
F
wind
direction
speed
MPH
gust
MPH
rain 1hr
in
rain 24hr
in
rain mn
in
humidity
%
barometer
mb
20260504081535 49 22 23.0 28.0 0.00 0.00 0.00 49 1014.5
20260504044528 56 28 13.0 18.0 0.00 0.00 0.00 36 1009.0
20260504043042 57 20 12.0 16.0 0.00 0.00 0.00 35 1008.5
20260504041534 58 10 13.0 17.0 0.00 0.00 0.00 35 1008.2
20260504040032 58 29 11.0 14.0 0.00 0.00 0.00 34 1008.1
20260504034530 59 11 12.0 17.0 0.00 0.00 0.00 33 1007.6
20260504033029 59 22 13.0 22.0 0.00 0.00 0.00 31 1007.2
20260504031530 58 21 9.0 14.0 0.00 0.00 0.00 27 1006.9
20260504030036 61 11 11.0 15.0 0.00 0.00 0.00 24 1006.7
20260504024529 63 20 4.0 8.0 0.00 0.00 0.00 22 1006.4
20260504023030 65 5 8.0 12.0 0.00 0.00 0.00 21 1006.3
20260504021540 67 360 10.0 12.0 0.00 0.00 0.00 20 1006.3
20260504020036 69 355 13.0 18.0 0.00 0.00 0.00 19 1006.3
20260504014529 71 5 14.0 18.0 0.00 0.00 0.00 18 1006.4
20260504013035 72 347 16.0 21.0 0.00 0.00 0.00 18 1006.5
20260504011530 73 355 17.0 21.0 0.00 0.00 0.00 17 1006.4
20260504010030 74 340 17.0 24.0 0.00 0.00 0.00 17 1006.4
20260504004541 75 331 12.0 20.0 0.00 0.00 0.00 16 1006.6
20260504003030 75 323 13.0 23.0 0.00 0.00 0.00 16 1006.8
20260504001534 75 360 11.0 24.0 0.00 0.00 0.00 15 1007.1
20260504000028 76 338 15.0 20.0 0.00 0.00 0.00 15 1006.9
20260503234529 77 331 14.0 23.0 0.00 0.00 0.00 15 1007.1
20260503233030 76 329 15.0 20.0 0.00 0.00 0.00 15 1007.1
20260503231530 76 323 16.0 24.0 0.00 0.00 0.00 15 1007.4
20260503230034 76 293 15.0 22.0 0.00 0.00 0.00 16 1007.5
20260503224530 76 282 13.0 19.0 0.00 0.00 0.00 16 1007.7
20260503223031 75 300 10.0 23.0 0.00 0.00 0.00 17 1007.9
20260503221535 75 291 14.0 19.0 0.00 0.00 0.00 16 1008.0
20260503220037 75 325 13.0 21.0 0.00 0.00 0.00 15 1008.1
20260503214542 75 236 14.0 23.0 0.00 0.00 0.00 15 1008.3
20260503213034 74 268 11.0 21.0 0.00 0.00 0.00 17 1008.6
20260503211532 73 269 12.0 27.0 0.00 0.00 0.00 17 1008.9
20260503210030 74 271 14.0 22.0 0.00 0.00 0.00 17 1009.1
20260503204532 73 265 15.0 25.0 0.00 0.00 0.00 17 1009.4
20260503203032 74 281 14.0 25.0 0.00 0.00 0.00 17 1009.6
20260503201532 73 299 18.0 26.0 0.00 0.00 0.00 16 1009.8
20260503200032 71 309 15.0 28.0 0.00 0.00 0.00 18 1009.8
20260503194534 72 222 13.0 24.0 0.00 0.00 0.00 19 1010.1
20260503193029 73 277 10.0 24.0 0.00 0.00 0.00 18 1010.3
20260503191528 71 244 9.0 26.0 0.00 0.00 0.00 20 1010.4
20260503190040 71 218 12.0 23.0 0.00 0.00 0.00 20 1010.7
20260503184530 71 229 14.0 26.0 0.00 0.00 0.00 20 1010.8
20260503183037 70 246 13.0 24.0 0.00 0.00 0.00 20 1011.1
20260503181549 70 227 11.0 25.0 0.00 0.00 0.00 22 1011.4
20260503180041 70 283 16.0 25.0 0.00 0.00 0.00 22 1011.5
20260503174527 69 284 8.0 14.0 0.00 0.00 0.00 27 1011.6
20260503173030 67 241 9.0 14.0 0.00 0.00 0.00 30 1011.9
20260503171528 66 260 9.0 18.0 0.00 0.00 0.00 31 1011.9